Regional Weather Roundup
Issued by NWS Spokane, WA

Home | Current Version | Previous Version | Text Only | Print | Product List | Glossary On
Versions: 1 2 3 4 5 6 7 8 9 10 11 12 13 14 15 16 17 18 19 20 21 22 23 24 25 26 27 28 29 30 31 32 33 34 35 36 37 38 39 40 41 42 43 44 45 46 47 48 49 50
000
NZUS01 KOTX 290510
RWROTX
EASTERN WASHINGTON/NORTHERN IDAHO ROUNDUP
NATIONAL WEATHER SERVICE, SPOKANE WA
1000 PM PDT THU AUG 28 2014

Note: "fair" indicated few or no clouds below 12,000 feet with no
significant weather and/or obstructions to visibility.

...NORTHEAST WASHINGTON AND NORTHERN IDAHO PANHANDLE...

CITY           SKY/WX    TMP DP  RH WIND       PRES   REMARKS
SPOKANE INTL   PTCLDY    72  43  35 SW12      29.95F
SPOKANE DOWNTO CLEAR     68  40  35 CALM      29.94F
COEUR D ALENE  CLEAR     68  45  42 S7        29.95F
DEER PARK      CLEAR     66  41  40 NW6       29.94S
SANDPOINT      CLEAR     61  52  72 CALM      29.97R

...SOUTHEAST WASHINGTON AND SOUTHERN IDAHO PANHANDLE...

CITY           SKY/WX    TMP DP  RH WIND       PRES   REMARKS
WALLA WALLA    CLEAR     72  36  26 SE7       29.94F
PULLMAN/MOSCOW CLEAR     60  39  45 CALM      30.01S
LEWISTON       CLEAR     71  42  35 SE7       29.94S
LOWELL           N/A     63  55  75 N5        29.99R

...COLUMBIA BASIN...

CITY           SKY/WX    TMP DP  RH WIND       PRES   REMARKS
EPHRATA        CLEAR     75  43  31 NW14      29.90F
MOSES LAKE     PTCLDY    74  43  32 W8        29.92S
TRI CITIES     CLEAR     72  52  49 CALM      29.90S
HERMISTON      CLEAR     76  50  40 SW12      29.90S
PENDLETON      CLEAR     75  43  31 SW16      29.96S

...EAST SLOPES CASCADES...

CITY           SKY/WX    TMP DP  RH WIND       PRES   REMARKS
THE DALLES     CLEAR     75  51  43 NW10      29.94S
YAKIMA         PTCLDY    74  51  44 NW12      29.95S
ELLENSBURG     MOCLDY    69  51  52 W20       29.99F
WENATCHEE      MOCLDY    74  45  35 NW5       29.94S
OMAK           PTCLDY    71  49  45 NW8       29.91R

...SOUTHERN BRITISH COLUMBIA...

CITY           SKY/WX    TMP DP  RH WIND       PRES   REMARKS
PENTICTON      PTCLDY    63  52  67 NW7       29.95S
CRANBROOK      PTCLDY    55  50  82 W8        30.04S

...WESTERN MONTANA...

CITY           SKY/WX    TMP DP  RH WIND       PRES   REMARKS
MISSOULA       MOCLDY    68  41  37 N6        30.02R

...NEIGHBORING CITIES...

CITY           SKY/WX    TMP DP  RH WIND       PRES   REMARKS
SEATTLE        MOCLDY    67  59  75 CALM      30.04F
CALGARY        PTCLDY    48  45  87 S5        30.08S



USA.gov is the U.S. government's official web portal to all federal, state and local government web resources and services.